CAPE
181 381 720 890 1053 1162 1125 1055 1058 1175 1142 1030 1003 944 893 843 778 706 727 785 782 902 1019 828 546 236 35 0 0 0 0 1
92 136 109 279 447 592 657 659 685 678 633 611 601 565 571 608 572 604 720 790 782 820 854 869 915 752 491 289 131 45 0 0
168 117 142 156 327 496 393 356 400 441 442 435 412 319 442 334 449 375 410 384 126 291 486 857 905 805 746 640 558 360 246 138
654 430 281 474 657 387 262 158 173 245 259 266 304 271 176 74 2 1 12 18 0 0 1 29 157 540 965 842 719 644 568 477
584 654 630 621 498 261 133 31 2 1 0 0 1 0 0 2 0 0 0 0 0 0 0 0 0 0 0 3 228 476 641 581
233 164 137 19 10 1 0 0 0 0 0 0 0 0 0 0 0 0 0 0 0 0 0 0 0 0 0 0 0 0 0 0
164 138 46 3 12 1 0 0 0 0 0 0 0 0 0 0 0 0 0 0 0 0 0 0 0 0 0 0 0 0 0 0
46 20 0 0 0 0 0 0 0 0 0 0 0 0 0 0 0 0 0 0 0 0 0 0 0 0 0 0 0 0 0 0
0 0 0 0 0 0 0 0 0 0 0 0 0 0 0 0 0 0 0 0 0 0 0 0 0 0 0 0 0 0 0 0
0 0 0 0 0 0 0 0 0 0 0 0 0 0 0 0 0 0 0 0 0 0 0 0 0 0 0 0 0 0 0 0
0 0 0 0 0 0 0 0 0 0 0 0 0 0 0 0 0 0 0 0 0 0 0 0 0 0 0 0 0 0 0 0
0 0 0 0 0 0 0 0 0 0 0 0 0 0 0 0 0 0 0 0 0 0 0 0 0 0 0 0 0 0 0 0
0 0 0 0 0 0 0 0 0 0 0 0 0 0 0 0 0 0 0 0 0 0 0 0 0 0 0 0 0 0 0 0
0 0 0 0 0 0 0 0 0 0 0 0 0 0 0 0 0 0 0 0 0 0 0 0 0 0 0 0 0 0 0 0
0 0 0 0 0 0 0 0 0 0 0 0 0 0 0 0 0 0 0 0 0 0 0 0 0 0 0 2 0 0 0 0
0 0 0 0 0 0 0 0 0 0 0 0 0 0 0 0 0 0 0 0 0 0 0 0 0 0 0 0 0 1 1 0
0 0 0 0 0 0 0 0 0 0 0 0 0 0 0 0 0 0 0 0 0 0 0 0 0 0 0 0 0 0 0 14
0 0 0 0 0 0 0 0 0 0 0 0 0 0 0 0 0 0 0 0 0 0 0 0 0 0 0 0 1 7 5 8
0 0 0 0 0 0 0 0 0 0 0 0 0 0 0 0 0 0 0 0 0 0 0 0 0 0 0 0 5 14 11 7
0 0 0 0 0 0 0 0 0 0 0 0 0 0 0 0 0 0 0 0 0 0 0 0 0 0 0 0 0 0 3 3
CIN
-382 -288 -169 -147 -100 -91 -103 -123 -134 -90 -100 -117 -103 -111 -125 -133 -124 -122 -100 -88 -97 -72 -62 -80 -116 -179 -188 0 0 0 0 -70
-481 -445 -385 -273 -204 -157 -155 -194 -196 -216 -215 -204 -205 -198 -182 -178 -184 -142 -112 -78 -84 -82 -76 -77 -60 -75 -116 -157 -180 -223 0 0
-368 -364 -375 -325 -251 -220 -267 -278 -249 -223 -232 -229 -249 -277 -216 -220 -173 -197 -191 -182 -282 -198 -135 -71 -50 -58 -64 -84 -108 -135 -161 -197
-268 -225 -223 -240 -201 -214 -248 -289 -287 -255 -248 -238 -246 -290 -345 -387 0 0 -137 -123 0 0 -131 -104 -136 -33 -11 -41 -77 -99 -116 -121
-256 -236 -210 -178 -205 -223 -296 -361 -65 -67 0 0 -54 0 0 -530 0 0 0 0 0 0 0 0 0 0 0 -19 -102 -99 -115 -122
-376 -411 -393 -489 -525 0 0 0 0 0 0 0 0 0 0 0 0 0 0 0 0 0 0 0 0 0 0 0 0 0 0 0
-459 -389 -450 -370 -522 0 0 0 0 0 0 0 0 0 0 0 0 0 0 0 0 0 0 0 0 0 0 0 0 0 0 0
-485 -378 0 0 0 0 0 0 0 0 0 0 0 0 0 0 0 0 0 0 0 0 0 0 0 0 0 0 0 0 0 0
-39 0 0 0 0 0 0 0 0 0 0 0 0 0 0 0 0 0 0 0 0 0 0 0 0 0 0 0 0 0 0 0
0 0 0 0 0 0 0 0 0 0 0 0 0 0 0 0 0 0 0 0 0 0 0 0 0 0 0 0 0 0 0 0
0 0 0 0 0 0 0 0 0 0 0 0 0 0 0 0 0 0 0 0 0 0 0 0 0 0 0 0 0 0 0 0
0 0 0 0 0 0 0 0 0 0 0 0 0 0 0 0 0 0 0 0 0 0 0 0 0 0 0 0 0 0 0 0
0 0 0 0 0 0 0 0 0 0 0 0 0 0 0 0 0 0 0 0 0 0 0 0 0 0 0 0 0 0 0 0
0 0 0 0 0 0 0 0 0 0 0 0 0 0 0 0 0 0 0 0 0 0 0 0 0 0 0 0 0 0 0 0
0 0 0 0 0 0 0 0 0 0 0 0 0 0 0 0 0 0 0 0 0 0 0 0 0 0 0 -4 0 0 0 0
0 0 0 0 0 0 0 0 0 0 0 0 0 0 0 0 0 0 0 0 0 0 0 0 0 0 0 0 0 -1 0 0
0 0 0 0 0 0 0 0 0 0 0 0 0 0 0 0 0 0 0 0 0 0 0 0 0 0 0 0 0 0 0 -2
0 0 0 0 0 0 0 0 0 0 0 0 0 0 0 0 0 0 0 0 0 0 0 0 0 0 0 0 -5 -4 -3 -2
0 0 0 0 0 0 0 0 0 0 0 0 0 0 0 0 0 0 0 0 0 0 0 0 0 0 0 0 -25 -25 -19 -4
0 0 0 0 0 0 0 0 0 0 0 0 0 0 0 0 0 0 0 0 0 0 0 0 0 0 0 0 0 0 -10 -12
Wind_Speed
14 12 11 10 11 11 11 12 13 14 16 16 18 19 19 20 21 22 23 23 22 23 23 23 23 21 21 21 20 19 18 18
13 11 10 11 11 12 13 13 15 15 17 18 19 20 22 23 23 24 25 26 27 26 26 26 26 26 24 21 21 22 20 19
14 12 7 10 11 12 14 15 17 18 19 19 20 20 21 22 23 23 24 26 28 29 29 29 30 29 29 27 25 23 23 21
11 13 13 7 12 13 15 18 19 19 20 21 21 20 20 22 24 26 27 28 28 29 30 30 31 29 30 30 27 26 26 26
18 17 16 12 11 13 13 18 22 19 21 23 24 23 22 22 23 26 29 30 31 29 29 29 32 31 30 30 27 26 26 25
19 18 16 15 14 13 16 17 18 22 23 24 24 26 27 28 27 27 31 30 32 32 31 31 33 33 32 33 33 29 29 28
19 19 18 16 15 15 14 14 17 19 21 21 23 23 25 27 29 28 26 26 28 29 30 31 34 35 35 34 34 32 31 31
18 18 17 17 16 16 17 18 19 20 21 22 23 24 26 28 28 28 29 29 29 31 31 31 32 33 34 33 33 33 32 32
18 17 17 17 17 18 19 20 21 22 23 24 25 26 27 28 28 29 29 30 32 32 33 33 33 33 34 35 34 34 34 34
19 18 19 19 19 20 20 21 22 23 23 24 25 27 28 28 29 30 31 31 32 32 33 34 34 36 39 39 37 35 35 35
18 18 19 19 20 21 22 22 23 23 24 25 26 26 28 29 31 32 33 33 34 34 34 35 36 38 40 39 39 38 36 33
17 18 18 19 20 21 22 23 23 24 25 26 26 27 29 31 32 33 34 35 36 36 36 36 35 39 37 38 37 32 28 28
17 17 18 19 20 21 23 22 22 24 25 26 27 28 30 31 32 33 34 35 35 36 35 36 36 39 36 39 33 31 26 31
17 18 18 19 21 22 21 21 21 23 24 25 28 29 31 32 33 34 35 36 36 36 36 35 33 37 37 35 35 33 29 38
17 18 19 19 20 21 21 21 22 24 26 27 29 30 31 32 32 33 34 34 35 35 34 34 35 33 36 31 35 35 43 29
16 18 20 20 19 20 21 22 24 24 26 27 30 32 33 32 31 32 33 34 35 35 34 34 34 37 34 28 32 34 38 42
15 17 19 20 20 20 22 23 23 24 27 29 31 33 34 32 31 32 35 35 36 36 37 36 34 34 35 35 35 33 34 36
15 16 19 21 21 22 22 23 24 27 30 31 33 33 33 34 34 35 35 37 38 38 37 37 37 36 36 36 37 39 40 41
14 16 20 21 21 22 24 24 26 28 29 30 32 33 34 36 36 37 37 38 39 39 39 39 39 39 39 39 38 38 40 42
13 17 19 21 22 24 24 25 26 27 28 29 32 34 35 36 37 38 39 40 40 40 39 41 42 41 42 42 42 42 42 42
Wind_Direction
56 38 6 343 325 328 333 339 342 336 340 341 334 332 329 328 325 325 324 323 324 322 322 322 323 325 326 324 325 326 325 323
50 28 12 339 334 335 339 345 344 345 339 336 333 331 326 324 323 321 320 319 316 316 316 316 314 314 316 320 320 318 321 319
46 48 34 314 330 330 332 333 330 329 332 332 334 334 334 333 332 329 324 322 319 315 313 310 307 305 303 306 310 312 312 314
55 77 78 323 312 319 319 323 327 330 332 330 330 334 337 337 336 332 329 324 323 319 315 313 309 306 301 301 306 305 307 306
43 39 53 60 317 312 325 326 311 327 333 330 324 331 335 334 333 333 331 325 321 323 322 318 310 312 312 313 312 307 307 309
27 24 29 35 59 333 332 337 341 341 342 340 333 331 333 335 335 321 322 325 320 319 318 318 313 313 314 312 307 311 308 315
20 25 28 18 18 15 12 10 5 9 2 5 357 359 350 350 351 347 341 338 333 333 330 320 313 309 306 306 303 308 306 310
27 27 28 26 22 21 13 14 13 11 11 6 4 2 3 357 360 354 348 342 337 333 331 325 322 320 315 315 313 312 311 309
23 26 29 31 35 33 31 28 23 17 8 4 4 4 1 359 358 355 355 351 339 336 333 330 323 322 319 316 314 312 310 307
34 38 40 37 35 32 27 24 20 16 12 6 2 0 358 356 356 354 353 351 348 346 340 335 331 324 316 312 312 311 309 308
38 37 33 35 30 24 23 20 16 12 10 6 2 359 356 352 351 349 348 347 346 344 341 336 331 326 320 317 312 307 306 308
35 32 32 31 24 19 16 13 11 8 4 1 0 359 356 352 349 348 348 345 341 341 338 336 333 328 326 321 317 317 316 312
20 24 21 17 12 8 2 5 5 3 1 1 360 357 356 354 351 349 349 345 343 342 339 336 336 333 329 324 326 324 319 315
23 16 16 12 9 8 6 4 4 3 0 359 356 354 352 351 349 345 345 344 343 344 344 340 339 337 331 328 321 321 318 314
29 22 14 13 15 14 10 8 3 358 355 353 353 353 353 352 352 350 347 347 345 345 344 343 340 342 340 335 323 316 312 318
30 20 14 15 16 14 10 5 359 358 356 354 352 351 349 349 349 349 348 345 343 342 342 340 338 334 337 339 331 324 317 308
22 16 12 16 15 11 8 5 4 2 357 353 351 349 348 348 349 349 346 346 344 342 340 339 339 336 333 329 327 325 321 314
15 12 9 7 6 6 7 7 3 356 352 350 350 351 352 352 349 347 346 344 342 340 338 336 334 332 330 327 323 319 315 312
16 16 7 8 10 9 6 4 0 0 356 354 352 352 351 348 348 346 345 343 342 340 338 336 334 331 329 325 321 317 314 310
20 12 10 9 9 8 7 3 0 2 1 357 353 351 350 349 347 346 345 343 342 340 338 335 332 329 326 322 319 315 312 308